Wind_Speed
14 15 14 12 12 12 12 13 14 14 14 14 15 16 16 16 16 16 16 17 17 17 18 18 18 18 17 16 16 16 16 16 17 17 16 17 17 17 17 17 16 16 15 15 14 14 14 14 13 13 12 12 12 12 13 13 12 12 11 11 10 10 10 10 11 12 13 14 14 15 16 15 13 8 9 9 8 9 9 9 8 10 10 9 9
17 16 14 14 13 13 13 12 13 14 14 14 15 15 16 15 15 15 16 16 17 17 17 17 17 17 16 16 16 15 15 15 16 16 16 16 17 17 17 17 17 17 17 16 15 15 15 14 14 13 13 12 12 11 11 11 11 11 11 10 10 10 9 10 10 11 12 13 13 14 15 14 13 9 8 9 9 9 8 8 9 11 11 10 10
19 17 15 15 13 13 14 13 13 13 14 15 15 15 15 15 14 14 16 16 16 16 16 16 16 16 15 15 15 15 15 15 15 15 15 16 16 17 17 17 17 16 16 16 15 15 15 15 15 14 14 14 13 12 11 11 10 10 10 10 9 9 9 9 9 10 10 11 12 12 13 13 11 8 7 7 7 7 7 7 8 10 10 10 10
19 17 17 15 14 13 14 14 12 13 14 14 14 14 14 14 14 14 15 16 15 16 15 16 16 16 15 15 14 14 14 15 15 15 15 15 16 16 16 16 15 14 14 14 13 13 14 14 14 13 14 14 13 13 12 11 11 10 9 8 8 8 8 9 9 9 9 10 11 11 11 11 9 6 6 7 6 7 6 6 7 7 7 7 8
18 17 17 15 14 14 13 14 13 12 13 13 14 13 13 13 14 14 15 15 15 16 15 15 16 16 16 15 14 14 14 14 14 15 15 15 15 15 15 15 14 13 13 13 13 13 14 13 13 13 13 13 13 13 13 12 12 11 10 9 8 7 7 8 8 8 9 9 9 10 9 10 9 5 4 5 6 7 6 5 5 4 5 5 5
18 17 17 15 15 14 14 15 13 12 13 13 13 13 13 13 14 14 14 14 15 15 15 15 16 15 15 15 14 13 14 14 13 14 14 14 14 14 14 14 13 13 13 12 12 13 13 13 13 13 13 13 12 12 12 12 11 11 10 10 9 8 7 7 9 9 9 8 6 6 8 10 9 6 5 5 5 6 6 5 5 4 4 5 3
17 17 16 16 16 15 15 15 13 13 13 13 13 13 13 13 14 13 13 13 15 15 14 15 15 15 15 15 14 13 13 13 13 13 13 13 13 13 13 12 12 12 12 12 12 12 12 12 12 12 13 13 12 12 12 11 10 10 9 9 9 9 8 9 9 8 8 7 4 5 8 9 8 7 6 6 6 5 6 6 5 4 4 4 3
17 17 16 16 16 16 16 14 14 13 13 12 12 13 13 13 14 13 12 13 13 13 14 15 15 15 14 15 14 14 14 13 13 13 13 12 12 12 11 11 11 11 11 11 11 11 11 11 11 12 12 12 11 11 11 10 9 8 8 8 8 8 9 9 8 6 5 4 4 7 8 9 8 7 7 6 7 6 5 5 4 3 4 4 4
20 18 17 16 16 17 17 15 14 13 13 12 12 13 13 13 13 13 13 13 13 13 14 14 14 14 13 14 14 14 13 13 13 12 12 12 11 11 11 10 10 11 11 11 10 10 10 10 11 10 10 10 10 10 10 9 8 7 7 6 7 7 8 8 7 6 3 3 5 9 8 9 8 7 8 7 7 7 5 4 4 3 2 3 5
22 18 17 16 16 17 16 15 14 13 12 12 12 13 13 13 13 12 12 12 12 12 14 14 14 13 13 13 13 14 13 13 13 12 12 12 11 10 10 10 10 10 10 10 9 9 9 9 9 9 9 10 10 9 9 9 8 7 6 5 5 5 7 7 6 4 2 3 6 8 7 9 8 6 8 7 7 6 5 4 4 3 2 2 3
21 19 18 18 17 16 16 15 14 13 13 12 12 12 13 12 12 12 12 12 12 12 13 13 13 12 12 12 13 13 13 13 13 12 12 11 11 11 11 10 10 9 9 9 8 8 8 8 8 9 9 9 9 8 8 8 8 7 6 5 4 5 6 6 6 4 3 5 6 8 8 9 8 7 8 7 7 6 4 4 4 4 3 1 1
21 20 19 19 17 15 15 14 14 13 13 13 12 12 12 11 12 12 11 11 12 12 12 12 12 11 11 11 12 13 13 13 12 12 11 10 10 10 11 10 9 9 8 8 7 7 7 7 8 9 9 9 8 8 8 8 7 6 6 5 4 4 5 5 5 3 4 5 7 8 8 10 7 6 8 7 7 5 4 3 3 3 2 1 0
21 20 21 20 17 16 15 14 14 13 12 12 11 11 11 11 11 11 11 11 12 12 12 11 11 10 10 11 12 13 13 12 12 11 10 10 10 10 10 10 9 8 8 7 7 7 7 7 7 8 8 8 8 8 7 7 7 6 6 5 4 4 5 5 5 5 4 4 5 7 9 10 6 6 8 7 7 5 4 3 2 1 1 2 2
21 21 20 19 17 17 15 14 13 13 13 12 11 11 11 12 11 11 11 11 11 11 11 10 10 10 10 10 11 12 12 12 11 10 10 9 9 10 10 9 9 8 8 7 7 7 6 7 7 7 7 7 7 7 7 6 6 5 5 4 3 4 5 5 6 7 7 4 4 7 9 8 5 6 7 6 6 4 3 2 1 0 1 2 3
22 21 20 19 18 17 16 15 14 13 12 12 12 11 11 11 11 11 11 11 11 10 10 10 10 10 10 10 10 12 11 11 11 10 9 9 9 9 9 9 8 7 7 7 7 6 6 7 7 7 7 6 7 6 6 6 5 5 4 3 3 5 6 4 4 6 6 5 4 8 9 5 4 4 6 7 6 4 3 2 1 0 1 2 3
22 21 20 19 18 18 16 15 14 13 13 12 11 11 11 11 11 10 11 11 11 10 10 10 9 10 10 9 10 11 11 10 9 9 9 9 9 9 9 8 7 7 7 6 6 6 6 7 7 6 6 6 6 5 4 4 4 3 3 5 6 7 7 7 7 5 5 5 4 8 7 4 4 4 7 9 6 4 3 1 0 0 1 2 2
21 21 20 19 19 18 17 16 15 14 13 12 11 11 11 11 11 10 10 11 10 10 10 10 9 10 11 10 10 10 11 9 7 8 8 8 9 9 8 7 6 6 6 7 7 7 7 7 6 6 6 6 5 4 3 3 3 4 6 9 10 8 7 7 8 6 5 5 5 7 5 3 4 5 7 8 5 3 2 1 0 1 1 2 2
20 20 20 20 19 17 17 16 15 14 13 12 12 12 11 11 11 10 10 10 10 9 10 10 9 10 12 10 10 10 10 9 7 6 7 8 8 8 7 7 6 6 7 7 7 7 6 6 6 5 6 6 5 3 3 5 7 9 12 13 11 9 7 6 7 6 5 5 5 6 4 2 4 4 6 7 5 4 2 1 1 1 2 2 2
19 19 19 20 19 18 17 16 16 14 13 12 12 12 12 11 11 10 10 10 9 9 9 9 8 10 12 11 10 9 9 8 7 6 7 8 8 7 6 7 7 7 7 7 7 6 6 5 5 5 6 6 6 7 8 10 12 13 13 11 10 8 7 6 6 6 6 6 6 5 2 1 3 4 5 6 4 3 3 2 2 2 2 1 2
20 18 19 20 19 19 18 17 17 15 14 14 13 12 12 12 11 10 10 10 9 9 8 8 9 11 12 12 11 10 7 7 7 6 6 7 7 7 7 7 8 8 7 7 6 6 5 5 5 6 7 7 9 12 14 14 14 13 11 10 9 7 7 6 6 6 6 6 5 4 2 1 4 5 5 5 4 4 3 2 2 1 1 1 1
21 17 19 22 19 18 18 16 16 15 15 15 13 12 12 13 12 11 11 11 10 9 9 8 9 11 12 12 11 10 7 6 8 5 5 6 6 7 8 8 8 7 7 6 6 6 6 5 6 8 8 8 12 14 15 14 13 12 11 10 9 7 7 7 7 7 5 4 2 2 1 2 5 5 5 5 5 4 3 3 3 2 2 2 1
18 16 19 22 19 18 17 16 16 15 14 14 13 11 12 12 12 12 11 10 10 10 9 8 8 10 12 11 10 9 7 8 9 6 4 5 6 8 9 8 7 6 6 6 7 6 6 7 10 10 10 9 9 11 11 11 10 10 9 8 9 8 8 8 7 6 5 4 1 2 1 2 4 5 6 5 4 4 3 3 3 3 3 2 1
17 19 20 19 19 18 18 17 16 16 15 14 13 12 12 13 12 11 10 10 10 10 9 8 8 8 9 10 9 9 9 9 9 7 6 5 7 8 8 7 6 5 6 7 7 7 8 10 11 11 10 9 7 7 7 6 6 6 7 7 8 7 6 8 8 6 5 4 3 3 2 1 3 5 6 5 5 4 3 3 2 3 2 2 2
17 20 22 22 20 19 20 19 17 17 15 14 14 13 13 13 12 11 10 10 9 9 9 9 9 9 9 10 10 9 9 8 8 8 7 6 7 8 7 5 5 5 6 7 8 9 9 10 9 8 8 7 6 6 5 4 5 4 5 5 6 7 5 6 7 5 3 3 2 2 1 1 2 3 4 5 4 3 3 3 3 3 3 2 3
17 15 19 22 21 20 21 21 20 18 15 15 15 14 15 13 12 12 12 12 11 11 10 10 10 10 10 10 9 8 8 6 7 8 6 5 6 6 5 4 4 5 5 6 8 8 8 8 5 4 4 4 4 5 3 4 5 4 3 4 5 7 5 3 5 4 1 1 1 2 1 2 2 2 1 2 2 3 3 3 3 4 5 4 4
21 16 17 18 20 20 19 21 22 17 14 16 16 14 15 14 15 14 13 14 14 13 11 10 10 10 9 9 8 8 9 7 6 6 6 6 7 6 5 4 3 4 3 3 6 5 5 6 5 3 4 4 5 4 3 3 4 4 4 2 2 4 4 2 3 3 1 0 2 3 3 4 3 3 2 1 1 2 3 3 4 5 6 5 5
23 22 20 18 19 21 19 21 21 16 15 17 16 15 14 15 17 15 14 15 14 14 13 11 10 10 9 8 9 9 7 8 8 7 6 7 8 7 6 4 3 4 3 3 6 6 5 6 5 3 3 4 4 4 2 2 2 2 3 2 2 2 1 2 3 2 1 1 3 3 3 4 4 3 2 1 1 2 3 3 4 5 6 6 6
22 23 23 22 21 21 22 21 20 18 16 17 16 16 15 16 18 16 15 16 16 15 14 12 11 11 11 8 8 9 7 7 9 8 8 8 8 6 6 5 3 2 2 2 3 4 4 4 4 3 1 1 2 5 4 2 0 1 0 1 2 1 3 1 3 4 3 2 4 4 3 4 4 4 3 2 2 3 4 4 5 6 5 6 6
17 19 21 25 23 19 22 21 21 20 17 19 18 16 17 18 18 17 17 16 16 15 14 13 12 12 12 10 9 10 8 7 8 9 8 8 7 6 5 5 2 2 2 1 2 2 2 3 3 3 2 0 0 4 4 2 2 4 3 1 1 3 3 4 3 5 7 4 5 6 5 5 5 4 4 4 4 5 5 5 8 8 6 6 7
14 15 15 22 25 21 20 19 21 20 17 19 19 17 18 19 19 17 17 16 15 14 14 13 12 12 12 11 10 9 8 7 8 9 8 7 7 5 3 3 3 0 3 2 2 3 1 2 3 2 2 1 1 0 2 2 2 4 3 2 2 5 2 2 8 8 7 6 6 6 7 7 5 5 4 3 5 6 6 7 10 9 7 7 8
13 14 13 18 25 26 22 18 19 20 19 18 16 16 18 19 19 18 16 15 15 14 14 13 12 12 12 12 11 8 6 4 6 8 8 7 5 3 2 5 4 1 4 2 2 3 1 3 2 1 1 1 0 2 3 2 1 4 4 4 6 9 4 4 10 11 8 7 7 6 8 9 7 6 6 5 4 4 5 8 11 10 8 8 7
12 12 12 15 21 25 25 19 17 18 18 17 14 16 19 18 18 17 17 15 14 14 15 13 13 13 12 13 13 8 3 1 5 7 7 7 5 3 2 3 4 2 3 2 1 2 1 2 1 2 0 1 0 2 4 2 5 6 4 6 8 11 8 6 11 9 5 7 8 9 9 9 9 7 7 8 7 6 4 6 10 10 9 8 7
9 12 12 13 16 21 25 23 20 18 15 13 12 16 19 17 15 15 16 15 13 14 16 14 13 12 10 11 11 7 3 0 6 9 6 8 6 5 4 4 4 3 2 2 0 2 3 2 1 1 0 2 3 3 1 4 7 8 5 5 9 15 13 12 12 6 3 6 8 9 9 8 8 9 9 8 8 8 6 5 9 9 8 9 7
4 9 11 12 13 14 19 23 23 21 18 16 13 13 13 13 15 14 14 15 14 13 15 15 11 9 7 9 9 9 6 3 7 9 6 8 8 5 6 7 4 2 3 2 1 2 3 2 1 0 2 2 4 4 3 4 6 9 4 1 6 14 16 15 11 5 4 7 5 4 7 6 6 9 10 8 6 7 7 6 9 8 7 8 7
5 5 7 10 12 11 13 18 20 18 18 19 17 15 12 12 15 14 13 13 14 13 13 14 9 7 8 10 10 11 9 6 7 8 5 6 7 6 7 8 6 3 3 2 1 3 2 2 1 1 1 3 4 4 4 3 4 6 1 6 7 9 13 14 7 2 1 4 4 3 5 5 5 8 9 8 7 8 8 7 9 8 6 6 6
6 5 6 8 10 12 12 13 17 17 16 17 18 20 17 15 15 13 13 12 13 13 10 10 8 8 11 12 12 11 10 8 7 8 7 5 5 8 8 6 5 3 1 4 2 4 1 1 1 1 2 3 4 4 4 4 4 4 2 3 4 7 8 10 4 2 0 4 6 5 4 5 6 8 9 8 8 10 9 9 10 8 5 5 5
7 6 6 8 8 11 12 13 15 16 16 16 16 18 18 18 16 15 16 15 16 15 12 11 12 12 13 12 13 12 11 10 7 8 9 5 6 9 8 6 5 4 2 3 5 4 1 2 1 1 1 4 5 3 3 4 4 3 2 2 1 2 4 5 4 3 4 4 7 8 6 7 7 7 8 9 8 10 9 8 10 7 6 6 4
8 5 3 7 9 9 10 13 15 16 17 17 16 16 16 17 16 14 17 17 17 18 17 17 16 15 14 13 15 13 11 10 7 9 10 6 7 8 8 7 6 5 4 4 4 4 2 1 1 1 2 3 4 4 4 5 3 2 3 4 2 2 4 3 3 4 4 4 5 9 9 8 8 6 8 10 8 9 7 6 8 6 6 6 4
5 7 4 8 13 9 8 12 15 16 17 17 16 15 14 14 13 12 13 15 14 17 20 19 16 15 15 14 15 13 11 11 8 10 11 7 7 7 8 7 6 5 5 4 3 4 3 2 1 1 3 3 3 5 5 6 5 3 4 6 5 4 3 2 4 4 3 4 5 6 8 8 8 7 8 9 8 7 6 7 8 5 5 6 5
5 8 7 9 14 12 9 12 14 15 16 17 16 14 12 12 12 11 12 14 13 13 16 16 14 15 15 14 15 13 11 11 10 10 10 9 7 7 8 7 6 5 5 6 5 4 4 2 1 2 3 3 4 4 4 5 7 6 5 6 5 3 2 2 3 3 4 6 5 4 5 7 8 9 10 10 8 7 6 7 8 7 6 5 5
5 7 7 8 11 11 10 12 14 14 16 18 16 14 12 12 13 12 11 13 12 12 14 14 13 14 15 15 16 14 12 12 12 11 10 9 8 7 8 7 6 6 6 5 5 3 3 2 2 4 4 3 5 5 3 4 7 6 3 5 6 2 2 0 2 4 6 6 6 5 5 6 8 9 10 9 8 7 6 6 5 8 9 6 5
7 6 7 8 11 13 13 13 14 15 15 17 16 13 12 14 15 12 12 12 12 14 16 15 13 13 15 16 15 14 13 13 12 11 11 10 8 8 9 8 6 7 6 4 3 3 3 4 4 5 4 3 6 5 3 2 4 4 2 4 5 2 3 1 4 6 5 5 7 7 7 6 6 7 8 8 7 7 6 5 4 7 10 8 8
8 6 6 8 9 12 14 13 14 15 13 13 15 14 12 12 12 12 14 13 14 16 16 16 13 12 14 16 15 15 14 14 13 12 11 10 9 8 8 7 7 7 7 6 5 5 5 5 5 5 4 4 5 4 5 4 4 3 3 3 3 2 2 2 4 6 3 5 8 9 10 8 7 7 6 6 8 8 7 5 4 5 8 10 9
6 6 8 9 8 9 12 14 13 13 12 12 14 14 13 12 12 13 14 13 14 15 14 16 15 12 14 15 15 15 15 13 13 12 11 11 11 9 8 8 9 8 6 7 6 6 6 5 4 4 4 6 4 3 5 5 4 2 1 1 3 1 1 1 3 3 3 4 7 9 11 10 8 7 6 6 8 10 9 8 7 4 6 10 9
9 10 10 9 9 10 12 14 14 12 11 13 14 14 15 15 13 12 11 10 12 12 13 16 16 16 16 15 15 15 15 14 13 13 12 12 12 10 9 8 8 8 7 7 7 6 5 4 4 4 4 5 3 3 5 3 1 2 1 1 2 1 1 3 3 3 2 5 5 7 9 10 9 7 6 8 9 9 9 9 8 7 9 10 9
11 13 12 11 11 12 13 14 16 13 12 14 15 15 17 17 14 12 11 11 11 12 15 16 16 19 18 16 16 16 16 15 14 14 13 13 13 10 9 8 6 7 7 7 6 6 5 4 4 4 3 3 2 4 5 4 2 2 2 2 2 3 2 3 2 1 2 6 6 6 8 9 8 7 7 9 9 8 6 7 8 8 10 10 10
13 13 15 14 13 13 13 14 15 14 13 15 17 16 16 17 15 14 12 11 12 13 16 17 16 20 19 17 17 16 17 16 14 14 13 13 13 11 10 9 8 8 7 6 6 6 5 4 3 3 2 2 2 4 5 5 4 2 3 3 3 3 4 3 1 1 2 3 4 6 6 6 8 9 8 8 8 6 5 4 4 6 9 13 15
16 14 15 15 15 15 14 15 16 14 12 14 17 16 15 15 15 14 13 12 12 13 15 16 15 17 18 17 17 17 17 17 15 15 14 13 13 12 11 10 9 8 7 6 6 6 5 4 4 3 3 3 3 4 5 5 4 3 4 4 3 3 4 4 2 3 1 1 3 4 6 7 9 10 7 6 6 4 5 6 0 2 6 13 19
19 15 15 14 15 17 15 16 17 15 12 14 16 16 14 15 14 14 13 12 12 12 14 14 13 15 17 18 19 18 18 18 16 15 15 14 12 12 11 10 10 8 7 7 6 5 4 4 3 2 3 4 3 4 6 5 5 5 5 4 4 4 4 5 3 2 3 1 2 1 4 7 8 8 5 4 5 4 6 7 4 1 5 11 14
17 11 14 15 14 16 15 16 17 15 14 16 16 15 14 14 14 15 14 13 14 13 13 14 16 17 16 19 20 18 18 18 16 16 16 15 13 12 11 10 10 9 8 7 6 5 4 3 4 4 5 6 4 5 6 6 6 7 6 6 6 6 4 2 3 1 2 2 2 1 2 3 5 7 5 4 5 6 6 4 4 5 10 13 12
14 8 11 14 16 18 18 16 16 15 15 16 15 15 15 14 14 16 16 14 16 17 15 15 18 18 16 19 21 18 18 17 16 16 16 16 14 13 12 11 10 10 9 8 7 6 5 5 5 5 6 7 6 6 6 7 7 8 8 7 5 6 5 1 2 4 3 4 2 1 2 3 5 7 6 7 7 6 6 2 4 5 7 6 6
Wind_Direction
139 137 134 128 123 120 115 113 107 104 104 108 109 106 105 104 104 103 104 103 103 102 101 100 97 97 96 96 96 97 97 97 97 97 99 99 99 98 96 95 96 99 99 100 101 101 100 99 99 97 97 96 95 95 94 94 94 93 92 89 86 83 83 87 92 94 94 96 96 95 97 101 110 128 134 137 143 133 130 125 132 145 151 162 171
141 139 136 130 124 121 118 113 109 107 105 109 110 109 108 106 105 104 106 106 105 103 101 99 98 98 98 98 97 97 97 97 98 100 101 102 102 101 100 97 97 100 101 100 99 100 101 100 100 100 99 96 94 93 93 92 92 93 94 94 93 90 88 87 91 92 91 93 94 96 98 103 109 119 131 136 143 140 135 127 131 141 151 166 176
139 138 137 132 126 124 122 116 112 109 110 113 113 112 112 109 107 107 109 108 106 103 101 101 100 100 100 100 98 98 97 97 99 100 102 103 103 102 102 100 99 99 100 99 97 99 101 102 101 101 100 97 94 92 91 90 90 90 92 94 96 96 95 95 94 94 94 95 95 96 100 104 107 116 126 126 132 131 131 133 134 138 149 166 170
136 137 137 135 131 130 125 119 115 113 115 116 115 116 115 113 111 111 111 108 106 105 103 102 102 102 102 101 100 99 97 97 98 100 101 101 102 103 102 101 102 102 101 100 100 102 103 105 103 101 101 100 98 94 91 89 89 89 90 91 96 98 99 101 100 99 98 98 98 98 102 109 112 120 127 121 116 111 118 131 130 134 144 164 172
135 136 137 135 134 133 128 121 119 119 118 118 119 119 118 116 114 114 113 111 109 106 104 103 102 102 103 103 101 100 98 98 99 101 100 100 101 102 103 103 105 105 103 101 101 103 103 104 101 100 98 98 99 100 97 92 89 88 87 86 89 95 102 108 109 108 105 102 102 106 113 119 124 134 133 119 107 102 104 115 130 141 149 162 179
136 136 136 134 134 133 130 124 122 122 120 121 121 121 121 119 115 114 116 116 111 107 105 104 103 103 103 104 104 104 101 100 100 99 99 100 101 102 103 104 107 107 105 103 102 103 104 104 102 100 97 95 96 98 99 98 95 92 89 86 85 89 102 112 115 116 116 112 95 99 119 124 129 147 145 122 108 107 104 109 128 141 153 160 170
136 138 136 133 134 134 133 127 123 125 122 122 123 123 123 120 116 114 115 115 113 111 110 109 106 106 106 106 107 106 104 102 101 100 99 100 100 101 102 105 106 106 105 104 105 105 104 105 104 102 99 96 94 95 96 98 98 96 94 91 89 91 104 114 115 113 113 111 101 108 124 131 135 152 151 132 122 113 108 111 116 116 125 146 161
137 142 139 132 135 136 132 127 124 125 123 123 125 125 123 121 118 114 114 115 116 116 115 114 110 109 110 110 109 108 106 104 104 103 103 102 101 101 102 105 105 106 107 106 107 106 106 105 104 102 101 98 95 95 94 95 94 94 94 94 95 101 115 121 118 117 111 103 133 139 137 140 143 157 157 140 128 118 110 107 106 110 118 132 125
139 142 140 133 134 134 129 127 125 124 124 126 126 124 123 121 119 116 116 117 118 118 119 118 112 112 113 112 111 110 109 108 107 105 105 104 103 103 104 105 105 106 106 106 107 106 107 106 104 103 101 99 95 92 90 92 91 91 89 91 96 106 123 130 128 122 115 102 122 133 141 138 137 157 156 143 128 121 114 107 104 105 131 138 118
141 141 139 135 135 132 129 128 126 125 127 127 127 125 124 122 121 119 118 119 118 117 122 121 114 113 115 114 113 112 111 111 109 107 106 106 107 108 107 107 106 107 105 107 108 107 107 107 108 107 105 101 96 91 92 92 88 86 83 87 90 106 129 133 128 108 118 142 119 125 140 137 141 157 147 139 127 120 119 126 136 141 164 135 121
139 139 136 137 137 133 131 131 129 129 129 129 130 127 125 125 124 121 121 121 118 119 121 119 116 117 118 118 116 114 114 114 113 111 108 109 111 111 109 106 104 107 109 109 110 113 111 110 111 110 108 102 95 91 91 89 82 76 74 82 89 111 133 128 115 96 136 154 140 135 132 132 151 163 142 136 130 122 124 135 149 163 202 178 110
135 135 137 139 140 137 135 134 133 132 129 130 131 130 128 127 126 123 122 121 119 121 121 119 120 122 124 123 122 121 119 117 116 114 111 112 114 114 110 104 103 107 112 113 114 116 114 111 109 107 105 98 91 88 86 84 79 70 65 73 90 120 143 139 111 93 140 147 147 137 122 129 150 161 143 132 126 124 130 140 155 167 212 221 286
131 134 138 140 141 140 138 136 137 135 130 130 131 132 132 131 129 126 124 123 121 122 123 123 124 125 126 124 126 127 124 122 120 117 115 115 116 114 109 106 106 106 109 112 113 112 110 107 104 103 100 93 88 86 85 81 73 63 55 58 78 123 140 133 103 96 126 126 137 134 128 139 147 152 147 135 129 133 140 149 171 185 255 273 302
131 135 138 139 142 142 141 140 140 137 133 132 133 133 133 135 134 128 127 124 121 123 125 125 125 124 124 124 130 131 127 126 123 120 117 116 116 113 111 112 112 109 110 109 110 111 110 107 104 103 98 92 87 83 81 73 63 56 52 56 79 131 130 118 99 99 109 105 124 135 142 148 135 148 157 144 133 130 138 141 145 316 310 304 317
133 136 138 140 143 142 142 142 142 139 137 136 135 135 135 137 137 134 132 129 125 126 128 128 128 125 124 126 132 131 128 127 125 124 123 124 123 122 122 121 118 114 113 112 114 118 116 111 106 104 97 90 83 77 71 61 50 42 52 82 120 144 135 125 121 113 111 111 119 132 143 147 116 142 159 140 124 121 132 129 115 29 323 316 317
135 137 138 140 143 142 143 143 144 141 140 140 138 137 137 139 140 140 139 136 133 131 133 132 133 134 130 127 130 129 126 125 126 130 131 134 135 133 131 128 123 118 118 121 123 122 116 108 103 99 91 84 76 67 55 48 41 41 73 121 142 150 138 129 139 145 129 115 114 140 152 143 124 142 147 131 120 131 146 147 145 236 282 283 292
136 137 138 140 142 142 144 145 145 144 143 143 142 139 140 145 143 144 144 141 139 139 143 140 139 140 135 132 132 127 125 125 128 136 139 142 142 140 138 133 128 127 128 128 126 118 108 101 96 90 82 76 66 54 49 49 54 80 110 128 137 139 129 122 137 143 124 112 114 143 153 123 134 146 139 132 133 152 153 158 227 243 251 259 276
136 137 138 139 142 142 143 145 145 143 145 145 145 142 140 145 147 147 148 148 146 146 150 148 143 142 141 141 137 132 130 129 134 140 142 145 144 144 141 137 137 137 134 129 123 112 102 95 88 83 79 72 62 63 75 87 95 107 115 121 125 125 121 117 135 137 112 113 118 135 142 114 142 156 143 136 143 152 145 153 166 198 205 223 238
134 136 138 140 142 140 142 146 145 145 148 149 147 143 142 144 147 150 152 153 149 146 150 150 145 145 145 145 145 144 138 136 142 141 144 150 147 146 147 144 146 140 134 127 117 108 97 90 87 84 85 82 81 91 96 102 108 110 109 109 111 112 111 107 119 123 108 116 132 153 175 160 167 176 154 143 154 153 147 169 172 190 201 207 245
134 134 140 143 142 139 144 149 148 150 151 149 145 147 150 149 149 153 155 156 151 150 152 149 147 149 150 150 151 149 142 140 137 135 150 161 153 148 153 147 143 138 129 121 111 105 96 91 94 95 103 101 91 96 101 105 106 101 95 92 93 91 92 96 98 99 100 110 142 186 232 217 188 193 179 161 172 169 160 170 168 184 209 206 269
136 138 144 146 142 140 149 150 148 152 150 146 145 151 154 151 153 155 159 161 156 156 156 153 152 153 155 154 154 153 154 150 138 144 159 159 156 149 149 145 140 133 122 114 107 102 98 100 105 109 122 113 96 100 102 101 101 94 89 79 70 70 79 85 86 88 85 89 138 233 295 200 196 210 203 174 173 180 180 181 182 200 214 216 231
141 146 148 151 147 144 152 153 152 154 151 145 146 153 150 149 156 160 165 167 162 162 161 160 158 157 159 158 161 166 165 156 150 165 174 154 155 150 147 145 137 128 117 110 106 104 102 113 118 120 131 129 103 99 98 96 99 94 91 84 76 80 84 81 80 79 76 79 72 315 4 190 205 217 200 171 180 189 184 192 204 222 234 241 249
151 155 151 157 156 152 157 158 158 157 153 149 151 155 152 153 159 164 167 168 169 166 162 163 164 167 172 168 166 166 160 155 154 171 189 173 160 153 151 146 136 128 120 112 109 109 112 122 126 120 125 140 133 116 113 95 86 81 83 95 95 87 81 86 89 81 76 68 352 349 46 179 201 204 187 166 185 188 176 204 231 251 259 267 273
160 161 155 161 162 162 163 165 165 160 159 155 154 158 157 157 159 166 168 168 171 169 170 174 174 176 180 172 163 163 159 154 155 170 183 174 162 158 157 154 147 137 123 118 118 117 124 132 134 132 125 136 155 148 135 100 89 87 69 72 92 93 81 88 96 94 91 84 340 328 58 199 195 194 180 164 180 185 182 216 257 271 267 274 282
160 165 161 162 165 171 168 168 168 161 163 159 158 162 161 163 166 171 171 170 173 176 180 181 178 175 177 173 169 170 162 149 146 157 168 172 173 168 170 176 160 139 129 129 132 129 138 139 134 164 157 117 128 138 113 95 106 111 82 52 80 99 91 84 96 105 110 108 254 268 261 263 245 242 207 170 187 204 219 232 255 275 277 286 296
154 166 174 170 168 175 172 169 168 163 166 162 161 164 165 171 173 173 174 175 176 176 179 181 179 173 178 181 178 173 163 165 165 163 175 191 193 188 193 196 186 164 154 159 164 169 188 173 151 181 212 170 130 123 111 107 104 102 110 71 67 94 95 109 106 121 167 214 250 263 252 264 266 267 267 234 248 234 243 254 265 278 282 300 318
151 162 175 176 170 171 172 173 170 166 170 169 167 165 170 177 174 173 178 177 175 174 175 178 178 176 182 184 181 175 171 182 183 185 192 193 193 196 208 203 209 212 192 195 191 187 204 198 180 177 201 176 132 128 153 160 118 82 114 109 89 80 49 162 142 176 256 264 255 275 259 263 268 263 271 225 242 255 259 272 274 275 283 307 325
151 159 167 172 175 170 168 174 173 170 172 176 175 170 173 177 174 175 178 176 174 176 175 173 176 180 184 184 184 181 183 189 179 187 194 189 194 200 207 198 193 217 201 211 199 175 174 181 181 170 133 37 124 153 152 143 122 11 355 92 125 198 303 267 160 192 238 235 240 275 278 278 278 258 262 243 249 265 268 281 274 276 288 301 313
152 160 162 164 173 177 170 172 174 174 175 175 176 177 177 178 179 178 177 177 179 179 177 177 175 177 184 183 182 185 196 199 179 183 187 186 200 205 204 193 165 146 167 171 153 166 187 165 166 158 137 354 174 158 143 126 285 312 316 353 179 225 309 320 280 222 225 220 225 260 272 282 291 273 265 256 261 265 267 273 270 275 293 298 303
150 162 159 154 163 174 177 173 172 175 177 175 179 184 179 181 186 182 180 182 182 183 182 181 175 176 188 188 185 195 213 213 183 180 178 179 192 194 170 136 104 61 226 207 154 182 186 119 148 150 134 170 326 7 117 129 259 311 331 1 302 267 252 278 282 259 231 228 225 252 272 277 287 291 294 277 263 263 264 267 268 272 283 293 297
152 162 154 149 155 163 175 177 173 175 177 178 185 188 180 183 188 183 184 187 186 188 187 183 177 178 188 195 195 196 209 211 186 177 170 174 182 183 128 113 110 304 252 221 142 186 149 85 125 193 251 211 162 18 36 132 259 355 1 345 318 290 265 237 266 260 242 241 232 246 271 276 278 288 303 300 280 266 261 261 266 266 266 279 285
154 155 150 156 152 157 171 174 174 174 176 184 182 179 179 185 190 183 182 186 186 190 190 185 182 180 185 196 197 190 194 214 174 170 170 177 168 153 128 121 156 190 229 218 117 141 135 104 171 220 282 18 187 24 26 354 327 346 338 315 294 268 253 235 247 252 256 248 234 238 259 275 275 278 294 293 286 280 267 257 264 263 258 269 275
148 144 151 166 154 156 165 163 171 169 170 189 181 175 178 183 193 191 186 184 185 192 192 191 185 175 179 193 195 191 190 147 174 173 174 182 166 147 165 188 194 184 202 225 151 129 122 122 189 230 134 14 301 261 354 6 348 339 316 309 282 259 249 232 225 228 253 247 237 242 257 274 269 271 290 293 288 281 267 260 270 271 261 266 275
109 134 157 166 156 159 158 155 167 164 163 180 180 183 182 177 190 194 191 186 186 196 196 195 181 160 173 190 195 198 191 182 186 184 179 185 176 149 174 195 186 190 215 210 315 199 145 106 68 256 242 327 312 261 288 322 338 337 327 192 250 261 261 240 214 203 238 246 242 241 254 270 273 273 289 300 304 290 272 262 274 283 272 267 274
89 130 173 159 150 158 155 153 162 159 159 167 165 174 178 180 194 197 195 188 189 199 197 191 172 155 187 194 195 199 197 189 187 196 190 176 174 164 189 196 169 185 215 142 349 261 181 119 80 7 305 317 320 322 338 327 335 335 282 156 181 218 247 240 203 101 300 244 234 265 284 286 290 278 280 288 291 292 287 273 271 281 282 271 275
137 174 182 155 146 154 154 149 155 155 155 159 155 159 167 180 194 200 194 187 195 199 187 184 177 180 197 196 194 195 195 193 188 198 185 162 178 182 191 188 167 183 162 129 196 255 229 347 325 21 1 334 315 323 351 354 354 325 244 182 185 186 233 243 193 94 159 199 218 260 290 260 275 287 279 277 274 274 283 285 273 274 297 294 288
146 169 170 157 148 145 146 146 155 163 166 167 157 154 159 168 182 194 189 186 194 192 183 190 195 199 202 196 194 193 194 193 193 193 177 175 198 189 190 183 178 193 175 192 225 242 257 323 312 147 352 333 320 310 333 341 351 351 295 271 243 193 258 243 177 192 230 236 239 254 262 247 272 304 291 282 274 262 268 280 264 263 314 320 309
130 171 183 150 148 133 134 146 156 168 172 171 165 164 165 165 172 183 185 189 185 177 183 196 199 199 200 198 193 190 195 191 191 193 179 189 209 198 197 186 178 190 200 229 240 237 204 98 130 201 333 327 318 316 329 327 329 5 333 307 310 283 275 242 203 232 264 297 278 264 264 259 268 288 286 283 280 265 256 261 255 262 312 311 303
158 180 174 147 155 149 138 145 154 167 175 173 171 173 174 172 174 177 184 192 185 175 183 191 195 197 194 195 193 187 196 191 190 199 185 191 216 205 194 187 189 195 201 226 243 232 205 121 137 243 323 311 305 323 324 318 321 331 323 319 307 272 282 287 243 249 291 317 322 284 266 267 271 272 276 275 281 277 247 248 262 266 293 295 300
192 165 162 151 150 155 158 151 156 170 175 174 174 171 171 174 176 184 190 189 191 195 191 185 191 200 190 184 188 186 194 192 190 200 190 188 206 200 185 186 205 206 198 214 225 217 209 207 211 237 298 296 291 306 292 301 318 309 303 317 304 251 246 281 246 264 294 305 328 313 274 276 274 270 272 267 274 283 255 256 268 255 262 282 293
192 165 171 151 135 154 169 157 155 164 171 174 176 172 174 181 181 189 195 185 189 200 193 187 194 198 187 186 190 187 192 195 191 195 193 193 203 203 193 185 198 211 202 207 214 201 209 228 255 272 282 286 285 292 292 308 312 295 280 299 292 213 182 210 341 305 297 311 332 333 312 294 278 278 285 279 270 273 270 274 271 260 267 271 265
193 184 181 157 136 153 167 163 157 156 167 173 175 177 181 190 189 188 191 188 197 200 190 190 197 191 182 187 191 188 194 196 193 193 193 198 205 201 194 189 194 203 202 214 224 213 230 239 256 272 268 277 285 289 310 317 293 295 320 300 280 209 212 296 343 315 297 309 328 336 329 314 293 288 296 295 274 261 273 285 285 281 276 264 258
191 183 193 180 150 159 168 169 166 163 171 177 177 179 182 187 186 185 190 194 199 198 193 194 198 191 183 187 188 189 198 197 193 196 194 196 204 203 192 192 200 198 202 215 225 225 226 232 247 258 259 273 275 271 276 249 229 288 331 309 274 221 255 308 329 332 335 318 329 332 318 306 293 288 292 296 281 270 281 287 286 301 283 263 260
186 189 201 194 168 174 177 173 174 169 176 189 184 178 181 185 180 183 192 198 196 194 201 204 200 187 181 188 191 191 198 199 197 197 196 196 201 206 203 200 200 198 207 212 218 233 224 222 239 239 260 275 267 262 271 249 219 246 273 287 298 317 352 302 304 8 27 328 335 331 309 295 286 295 294 285 291 291 293 288 272 269 269 264 266
184 199 206 196 178 178 177 173 173 166 172 188 186 177 180 185 182 183 186 190 193 196 207 208 201 190 182 188 193 193 198 200 200 199 198 199 196 198 201 202 199 196 214 221 222 236 223 225 242 229 253 274 277 290 284 281 263 240 218 255 305 335 3 321 327 70 24 301 321 333 305 285 284 303 295 281 305 313 307 309 292 257 247 254 264
193 202 201 191 189 185 174 174 172 166 173 182 184 181 179 181 181 179 178 181 188 195 201 199 198 195 190 192 195 194 198 198 201 202 200 202 198 193 199 205 207 205 217 226 230 240 226 222 239 235 251 272 309 307 292 303 322 272 293 280 242 211 222 315 340 91 324 303 313 321 296 279 282 301 295 286 309 327 328 321 300 277 265 258 262
200 206 199 184 188 190 180 181 175 165 173 179 183 186 180 182 186 181 179 183 184 191 196 192 190 192 193 196 195 193 198 198 200 201 201 206 201 196 205 210 217 220 221 227 236 246 244 240 232 232 267 299 315 306 300 312 321 311 324 305 246 229 247 278 230 189 329 308 291 291 287 284 279 284 293 292 304 331 6 344 271 284 289 264 257
199 202 197 184 181 185 185 190 185 172 176 180 181 186 184 184 186 183 184 188 188 190 193 192 187 187 193 195 191 193 197 197 200 199 199 205 200 198 205 208 218 227 224 230 239 243 248 239 218 220 278 294 283 287 299 316 321 313 318 306 275 274 294 298 221 175 167 293 280 274 289 303 292 293 302 304 308 318 11 25 157 265 282 252 251
208 206 186 182 179 179 182 186 188 182 178 181 184 188 189 185 182 183 187 192 198 193 189 196 190 185 194 195 189 192 195 197 202 200 198 202 200 198 203 208 217 226 228 234 241 244 234 213 215 245 272 274 270 277 288 299 305 302 300 298 296 293 295 306 295 176 154 221 271 240 295 318 319 321 322 314 325 337 2 18 50 140 234 226 231
206 204 176 178 174 174 182 182 183 181 177 182 189 190 189 188 184 185 189 192 202 197 186 194 192 190 198 195 192 192 190 195 202 201 199 202 202 200 204 211 215 220 228 236 247 251 238 220 243 264 257 255 261 276 284 289 294 298 298 299 306 301 281 274 307 323 150 227 274 326 314 309 315 324 337 336 339 0 2 11 97 143 200 206 198
196 186 174 178 173 177 189 188 180 180 182 183 186 189 189 192 190 190 192 193 203 203 192 191 190 190 195 193 194 194 187 193 200 201 200 202 204 204 207 213 216 219 225 234 246 252 249 242 244 257 259 248 246 266 281 283 287 290 293 291 287 290 299 339 314 299 246 229 245 335 277 257 282 302 330 352 348 356 6 52 114 131 186 180 150
Height
788 788 789 788 789 788 788 788 789 789 790 791 791 791 792 793 795 795 796 797 798 799 800 800 801 802 803 804 805 806 807 807 808 809 810 811 811 813 813 813 813 813 814 814 815 815 815 815 816 816 816 816 816 817 817 818 818 818 818 818 819 819 820 821 822 823 823 824 825 827 828 828 827 825 825 827 826 827 827 827 827 828 828 828 829
787 788 789 789 789 788 789 788 790 790 790 791 792 793 793 795 796 797 797 799 799 800 801 802 802 803 804 805 806 806 807 808 809 810 811 812 812 814 814 815 815 815 815 815 816 816 817 817 817 817 818 817 817 817 818 818 819 819 820 820 821 821 822 822 823 824 825 826 827 828 829 829 828 827 827 828 828 829 829 829 829 829 829 829 830
787 789 789 789 790 790 790 790 790 790 792 792 793 794 795 797 797 799 799 800 801 802 803 803 804 804 805 806 807 807 808 809 810 811 812 812 813 814 815 815 816 816 816 817 817 818 818 818 819 819 820 819 819 819 819 819 819 820 820 821 822 822 823 824 824 825 826 828 828 829 830 830 829 828 828 829 830 831 831 831 831 831 831 831 831
787 788 789 790 791 791 791 791 791 792 793 793 795 796 797 798 799 800 800 802 802 803 804 804 805 805 806 807 807 808 809 809 810 811 812 813 814 815 816 816 817 818 818 818 819 819 820 820 821 821 821 821 821 820 821 821 820 821 821 821 822 823 823 824 825 826 828 829 830 830 831 831 830 828 828 830 831 832 833 832 833 833 832 832 832
787 789 790 791 791 792 792 792 793 793 794 795 796 797 798 799 800 801 802 803 804 805 805 806 806 806 807 807 809 809 810 810 811 812 813 814 815 816 816 817 818 818 819 820 820 821 821 822 822 822 822 822 823 822 823 823 823 822 822 822 823 823 824 825 826 827 828 829 830 831 832 832 831 829 829 831 833 834 834 834 834 834 834 833 834
788 789 791 792 793 793 793 793 794 795 796 796 797 798 800 801 801 802 803 804 804 806 806 807 807 808 808 809 810 810 811 811 812 813 814 814 815 816 817 818 819 819 820 821 821 822 822 823 823 823 824 824 824 824 824 825 825 824 824 824 824 824 825 826 827 828 829 830 831 831 832 832 832 831 830 832 833 834 835 835 835 835 835 835 835
788 790 792 792 794 794 794 795 795 796 797 797 798 800 801 802 803 803 804 805 805 806 807 808 808 809 809 810 811 812 812 812 813 814 814 815 816 817 817 818 819 820 821 822 822 823 823 823 824 824 824 825 825 825 826 826 826 825 825 825 826 826 826 827 827 828 830 831 832 832 833 833 833 832 832 833 834 835 835 836 835 836 836 836 837
788 790 791 792 794 795 796 796 796 797 798 799 800 801 802 803 804 804 805 806 806 807 808 809 809 810 811 812 812 813 813 813 814 814 815 815 816 817 818 819 820 821 821 822 823 823 824 824 825 825 825 826 826 826 826 827 826 826 826 826 827 827 827 828 828 829 830 831 832 833 834 834 833 832 833 834 835 836 836 836 836 837 837 838 838
788 789 790 793 794 796 797 797 798 798 799 800 801 802 803 804 805 805 806 807 807 808 809 809 810 811 812 813 813 814 814 814 815 815 816 816 817 817 818 819 820 821 822 823 823 824 824 825 825 826 826 826 827 827 827 827 827 827 827 827 828 828 828 828 828 829 830 831 832 833 833 834 834 833 834 835 836 837 837 837 837 838 838 839 839
787 789 791 793 794 796 797 798 799 800 801 802 803 804 804 805 806 806 807 808 808 809 810 811 811 812 813 814 814 814 815 815 816 816 817 817 817 818 819 819 820 821 822 823 824 825 825 825 826 826 827 827 827 827 828 828 827 827 827 828 828 828 828 828 829 829 830 830 831 832 833 834 834 834 834 835 836 837 837 838 838 838 839 839 840
787 789 791 793 795 797 798 800 800 801 802 803 804 805 806 806 807 807 808 808 809 810 810 811 812 813 814 814 815 815 816 816 817 817 817 818 818 819 819 819 820 821 822 823 824 825 825 826 826 827 827 827 828 828 828 828 828 828 827 828 827 828 828 828 828 828 830 830 831 832 833 834 834 834 835 836 837 837 838 838 839 839 839 839 839
789 790 792 794 795 797 799 800 801 803 803 804 805 806 807 807 808 808 809 809 810 811 811 812 813 814 814 815 816 816 817 817 818 818 818 818 819 819 820 820 821 821 822 823 824 825 826 826 827 827 828 828 828 828 828 828 828 828 827 828 827 827 827 827 828 828 829 831 831 832 833 834 834 834 835 836 837 838 838 838 839 839 839 839 839
789 791 792 794 795 798 799 801 802 803 804 805 806 807 807 808 809 809 809 810 810 811 812 813 814 815 815 816 816 817 817 818 818 818 819 819 820 820 820 821 821 822 822 823 824 825 826 826 827 827 828 828 828 828 828 828 828 828 827 827 827 827 827 827 827 828 829 831 831 832 833 833 834 835 836 837 837 838 838 838 839 839 839 838 839
789 791 793 795 796 798 799 801 803 804 805 806 807 807 808 809 810 810 810 811 811 812 813 814 814 815 816 816 817 817 818 819 819 819 819 820 820 820 821 821 821 822 823 823 824 825 826 826 827 828 828 828 828 829 829 829 828 828 828 827 827 827 827 828 828 828 829 830 831 832 833 833 834 835 836 837 837 838 838 838 838 838 838 838 838
790 792 794 796 797 799 800 802 803 805 806 806 807 808 809 809 810 810 811 812 812 813 813 815 815 816 816 817 818 818 819 819 820 820 820 820 820 821 821 822 822 822 823 824 824 825 826 826 827 827 828 829 829 829 829 829 828 828 827 827 827 827 828 828 828 829 829 831 832 832 833 833 834 835 836 837 837 838 838 838 838 838 838 837 837
791 793 795 796 798 799 801 802 803 805 806 807 808 808 809 810 811 811 812 813 813 814 814 815 816 817 817 818 819 819 820 820 820 820 820 820 821 821 821 822 822 823 823 824 825 825 826 826 827 828 828 828 828 829 829 829 828 828 827 827 827 827 828 827 828 829 830 831 832 832 833 833 834 834 836 836 837 837 838 837 837 837 837 837 836
792 794 795 796 798 799 801 802 804 805 806 807 808 808 809 810 811 812 813 813 814 815 815 816 816 817 817 818 819 819 820 820 821 821 821 821 821 821 821 822 822 823 823 824 825 825 826 826 827 827 828 828 828 829 828 829 828 827 826 826 826 827 827 827 828 829 830 831 831 832 832 833 834 834 835 836 837 837 837 836 836 836 835 835 834
793 795 795 797 798 800 801 802 804 805 806 807 808 809 809 810 812 812 813 814 814 815 815 816 816 817 818 818 819 820 820 821 821 821 821 821 821 822 822 823 823 823 824 825 825 826 826 826 827 827 827 828 828 828 828 828 827 827 826 827 827 827 828 828 829 830 830 831 832 832 832 833 834 834 835 835 836 836 836 835 835 834 834 833 833
793 794 795 797 797 800 801 803 804 805 806 807 808 809 810 811 812 813 813 814 815 815 816 816 817 817 818 819 820 820 821 821 821 822 822 822 822 822 823 823 824 824 824 825 825 826 826 826 827 827 827 828 828 828 828 828 827 827 828 828 828 828 829 829 830 831 830 831 832 832 832 833 834 834 835 835 835 835 835 834 834 833 833 832 831
793 794 795 796 797 800 801 803 804 804 806 807 809 809 811 811 812 813 813 815 815 816 817 817 817 818 818 819 820 820 821 821 821 822 822 823 822 823 823 824 824 824 825 825 826 826 826 827 827 827 828 828 828 828 828 828 828 829 829 829 829 829 829 829 830 831 831 831 832 832 832 833 833 834 834 834 834 834 834 833 833 832 832 831 830
792 793 794 795 796 799 800 802 803 804 805 807 808 809 811 811 812 813 814 815 815 816 817 817 818 818 819 819 820 820 821 821 821 822 822 823 823 823 824 824 825 825 825 826 826 826 827 827 827 827 828 829 829 829 829 829 829 830 830 830 830 830 830 831 831 831 832 832 832 832 832 832 833 833 833 834 834 834 833 833 832 831 831 830 830
791 792 793 793 795 798 799 801 803 804 805 806 808 809 811 811 812 813 814 815 815 816 816 817 818 818 819 819 820 820 820 821 821 822 823 823 823 823 824 825 825 825 825 826 826 827 827 827 827 827 828 829 829 829 830 830 830 830 830 830 830 830 830 831 831 832 833 833 832 832 832 832 833 833 833 833 833 833 833 832 832 831 830 830 829
790 791 792 792 794 797 799 800 802 804 804 806 807 809 810 811 812 813 814 815 815 816 816 817 818 818 819 819 819 820 820 820 821 822 823 823 823 824 824 825 825 825 825 826 826 827 827 827 827 828 828 829 829 829 830 830 831 831 831 831 830 831 831 831 831 832 833 833 833 833 833 833 833 833 833 833 834 833 833 832 831 831 830 829 828
788 789 791 793 793 795 798 800 801 803 804 805 807 808 810 811 812 813 814 815 815 816 816 817 818 818 818 818 819 819 820 820 821 821 822 823 823 824 824 825 825 825 825 825 826 827 827 827 827 828 828 829 829 830 830 831 831 831 831 831 831 832 832 831 831 832 832 833 833 833 833 834 834 834 834 833 834 833 832 832 831 830 829 828 827
786 787 789 793 793 795 797 799 801 801 803 804 806 807 809 810 812 813 814 814 815 815 816 817 817 818 818 819 819 819 820 820 821 821 822 823 823 824 824 825 825 824 825 825 826 827 827 827 827 827 828 829 830 831 831 831 831 831 831 832 832 832 832 831 832 832 832 832 833 833 833 834 834 834 834 834 834 833 832 831 830 829 828 828 827
787 787 787 791 793 795 796 798 800 801 803 804 805 807 808 810 811 811 812 812 813 814 815 816 817 817 818 819 819 819 820 820 821 821 822 822 823 824 824 825 824 824 825 825 826 827 827 827 827 827 828 829 830 831 831 831 831 831 832 832 832 832 832 832 832 832 831 832 832 833 833 833 834 834 834 834 833 833 831 830 830 828 827 827 827
787 788 788 790 792 794 796 797 799 801 802 804 805 806 808 809 809 810 810 811 812 813 814 815 816 817 818 818 819 819 819 820 821 821 822 822 823 824 825 825 825 825 826 826 826 827 828 827 828 828 828 829 830 831 831 831 832 832 832 832 832 832 832 832 832 832 831 831 831 832 832 832 833 834 834 834 833 832 831 830 829 828 827 827 827
785 789 789 789 792 794 796 797 798 800 801 803 804 805 807 808 808 808 809 810 811 811 813 814 815 816 817 818 819 820 819 820 822 822 822 823 823 824 824 825 825 826 826 827 827 828 828 828 828 828 828 829 829 830 831 832 832 832 832 833 833 833 833 833 832 832 832 831 831 831 831 832 832 833 833 833 832 831 830 829 828 827 827 826 826
783 787 788 789 791 792 795 797 798 799 800 802 803 804 805 806 807 807 808 809 810 810 811 812 814 815 817 818 819 820 819 820 822 822 822 823 823 823 824 825 825 825 827 828 828 829 829 828 828 828 829 829 829 830 830 832 832 832 833 834 834 834 834 834 834 833 832 831 830 830 830 830 831 831 832 832 831 830 830 828 826 826 826 826 826
782 785 786 789 791 791 794 796 797 798 799 801 801 802 804 805 806 807 808 809 809 810 811 811 812 814 816 818 819 820 819 820 821 821 822 822 822 823 824 825 824 825 828 830 829 829 829 828 829 828 829 829 829 830 830 831 831 833 835 835 836 836 834 834 835 833 832 830 830 830 830 829 830 831 831 830 830 829 828 827 825 825 826 825 825
781 785 786 789 791 792 794 795 797 798 798 800 800 801 803 805 805 807 808 809 809 809 809 810 811 812 815 817 819 819 819 819 820 821 821 822 823 823 824 825 825 827 830 830 829 829 829 828 828 829 829 829 830 830 830 831 831 834 836 837 839 838 835 834 835 834 832 830 829 829 829 829 829 830 830 830 829 828 827 825 824 825 825 824 824
779 783 786 788 790 793 795 795 796 798 798 799 801 803 804 805 806 807 808 809 808 808 808 809 810 811 814 816 818 818 818 818 819 821 822 822 823 823 822 824 827 828 830 830 829 829 828 828 828 828 829 829 830 830 830 831 832 834 836 837 838 837 835 834 834 834 832 830 829 828 828 828 828 828 828 828 828 827 826 824 823 823 823 823 823
779 784 785 787 790 792 795 796 796 798 798 799 801 804 806 808 808 808 809 809 808 808 808 809 810 811 813 814 816 817 817 819 820 821 823 823 824 824 824 825 828 828 829 829 828 828 828 828 827 828 828 829 829 829 830 832 832 833 835 836 838 837 834 834 833 832 832 830 828 826 826 827 826 827 827 826 826 826 825 824 822 822 822 821 821
780 784 785 786 790 791 793 796 797 798 798 801 804 805 809 811 809 809 810 810 809 808 807 810 810 810 811 813 814 816 818 820 821 822 822 823 823 824 826 827 827 828 829 828 827 827 827 827 827 827 828 828 829 829 830 831 831 832 833 837 840 840 836 834 832 830 830 828 826 824 824 825 824 824 825 825 825 824 824 823 821 821 821 820 820
781 784 785 785 789 790 793 796 795 797 799 802 807 808 809 809 808 809 812 812 811 808 807 809 810 810 812 814 815 817 819 820 821 822 822 823 823 824 825 826 827 827 827 827 827 827 827 827 827 827 828 828 829 829 830 831 830 831 833 834 836 838 837 834 830 828 826 826 825 823 822 822 821 822 823 823 823 823 822 822 820 820 820 819 819
782 785 785 785 788 789 792 794 794 797 798 801 806 807 808 808 808 810 811 812 811 808 807 808 809 811 814 815 817 818 819 820 820 821 821 822 822 823 825 826 826 826 826 827 826 827 827 826 826 827 828 828 828 828 829 830 830 830 832 832 832 834 834 831 828 825 824 824 824 822 820 819 820 820 821 821 821 821 820 820 819 818 818 818 817
782 785 786 786 787 789 791 792 794 795 796 799 802 804 806 809 811 811 810 812 814 811 811 812 811 813 815 815 817 818 818 819 820 820 821 822 822 823 824 825 826 825 826 826 826 826 826 825 825 826 827 827 827 828 828 829 829 829 829 829 829 830 830 829 826 824 824 824 823 822 820 819 819 819 819 820 820 819 819 818 818 818 817 817 817
782 784 786 786 787 789 791 792 794 795 795 797 799 801 804 807 809 811 810 813 816 816 817 817 816 815 815 816 816 817 818 818 819 820 820 822 822 823 824 824 825 825 825 826 825 826 825 825 825 826 826 827 827 827 827 827 828 827 827 827 828 828 828 827 825 824 824 823 822 822 820 819 819 818 818 819 819 819 818 817 817 817 817 816 816
783 784 786 786 787 788 790 791 792 794 796 797 798 799 802 804 806 807 809 810 812 816 818 818 817 816 816 815 816 816 817 818 819 820 820 822 822 823 824 824 825 825 825 825 825 825 825 825 825 825 826 826 826 826 826 826 826 826 826 826 826 827 826 825 824 824 824 823 822 821 820 819 818 818 818 818 818 818 818 817 816 816 816 816 816
783 784 786 787 786 787 789 791 791 793 795 796 797 798 800 802 803 805 807 808 808 811 814 815 815 816 815 815 815 816 817 818 819 819 820 821 822 823 823 824 824 824 824 825 825 825 825 825 825 825 826 826 826 825 825 826 826 825 825 825 825 826 825 825 825 825 824 822 822 821 820 819 818 818 818 818 818 818 818 817 816 816 816 815 816
782 783 784 785 786 786 788 790 791 792 794 795 796 797 799 800 801 803 805 807 808 809 811 812 813 814 813 814 814 816 817 817 818 819 820 821 821 822 823 823 823 823 824 824 824 824 824 825 825 825 825 825 825 825 825 825 825 825 824 824 824 825 825 825 825 824 823 822 822 821 820 819 819 818 818 818 818 818 818 817 817 816 815 815 815
781 782 782 784 785 786 788 789 791 792 793 795 795 796 798 799 800 802 804 806 807 808 809 810 811 812 812 813 814 815 816 817 818 818 819 820 821 821 821 822 822 823 824 823 823 824 824 824 824 824 825 825 824 824 825 825 825 824 824 824 824 825 825 824 825 824 822 823 822 822 821 820 820 819 818 818 817 818 818 818 818 816 814 815 815
781 782 782 783 785 785 787 789 790 790 792 794 794 795 797 799 800 802 803 804 805 806 807 808 809 810 811 812 813 814 815 816 817 817 818 819 820 820 821 821 821 822 823 823 823 823 824 824 823 824 824 824 824 824 824 824 824 824 825 826 826 826 827 825 824 824 822 823 823 822 822 821 820 819 819 818 817 816 816 817 818 816 815 815 816
781 782 782 783 783 784 786 788 789 789 790 792 794 794 796 798 800 801 802 803 804 804 806 807 807 807 810 811 812 813 814 815 816 816 817 818 819 819 819 820 820 821 821 822 822 822 823 823 823 823 823 823 823 823 823 823 824 824 826 827 825 827 831 827 822 823 822 821 821 821 822 821 819 819 818 818 817 815 815 815 816 816 815 815 816
781 781 782 783 783 784 786 787 787 788 789 791 793 794 795 797 799 800 802 802 803 803 805 806 805 805 808 810 811 812 812 814 814 815 816 817 817 818 818 819 819 820 820 821 821 821 822 822 822 822 822 823 823 822 822 822 823 824 825 827 827 831 832 826 823 824 821 819 819 820 821 821 820 819 818 818 817 816 815 813 814 815 814 814 815
781 781 782 783 783 784 785 787 787 787 789 790 792 793 794 796 798 799 800 800 801 801 802 803 803 804 806 808 810 811 811 812 813 814 815 815 816 817 817 818 818 819 819 820 820 820 820 821 821 822 822 822 822 822 822 822 823 823 823 825 827 829 828 824 825 826 822 818 819 819 820 820 819 819 818 818 818 817 815 813 813 813 811 812 814
781 783 783 783 783 783 784 786 786 787 788 789 791 792 793 795 796 797 798 798 798 799 799 800 802 803 805 807 808 809 810 811 812 813 813 814 815 816 816 817 817 817 818 819 819 820 819 820 820 821 821 821 822 822 822 822 822 823 823 823 823 824 824 823 825 826 825 822 819 819 820 819 818 818 818 818 818 817 816 815 813 811 810 811 814
782 784 783 782 783 783 784 785 786 786 787 788 790 791 793 794 795 796 797 797 797 797 798 799 801 802 804 806 807 808 809 809 810 811 812 812 813 814 815 815 816 816 817 818 818 818 819 819 819 820 820 820 821 822 822 822 822 822 822 823 823 823 822 822 821 822 825 826 822 820 819 819 818 817 817 817 817 817 818 816 813 813 813 814 816
782 783 782 781 782 783 784 785 785 786 787 787 789 790 792 793 794 795 795 796 797 797 797 798 799 801 803 804 805 806 807 808 809 809 810 811 811 812 813 814 814 815 816 816 817 817 818 818 818 819 819 820 820 821 821 821 821 822 821 821 821 822 821 821 821 821 822 825 824 821 819 818 818 817 816 816 816 816 816 815 814 816 817 817 818
779 780 779 779 781 783 785 786 786 786 787 787 788 789 791 792 792 793 794 795 796 796 797 797 797 799 801 803 803 804 805 806 807 807 808 809 810 811 811 812 813 814 814 815 816 816 817 817 817 818 818 819 819 820 820 820 820 821 821 820 820 821 821 820 821 821 821 822 822 820 818 818 817 816 815 815 815 814 815 815 815 817 817 816 817
777 778 778 778 780 782 785 786 786 785 787 787 788 789 790 791 791 792 793 794 795 795 795 795 795 796 799 801 801 802 803 804 805 806 806 807 808 809 810 811 811 812 813 814 814 815 815 816 816 817 817 817 818 818 819 819 819 820 819 819 819 819 820 820 819 820 820 819 820 820 818 817 817 816 814 814 814 814 814 815 815 815 815 813 814